Showing default

GGSE 4, 2828

Orbit data source: Space-Track

GGSE 4, 2828 is an American payload satellite in LEO that was launched on Wed, 31 May 1967 UTC via a THOR SLV-2 AGENA D launch vehicle from the Air Force Western Test Range (AFWTR). Payload-class satellites include a variety of spacecraft equipped with specific instruments for various scientific and technological missions. These include communications satellites like Starlink; space stations such as the ISS; scientific satellites like the Hubble; Earth observation satellites from companies like Planet Labs, Umbra, and HawkEye 360; GPS; miniature CubeSats for education and research; and military/defense satellites.

Loading next visibility...
Identifier
2828, 1967-053C
Orbit
LEO
Country
Flag of USUS
Related business
Manufacturer
NRL
Mission
Defense Technology
Bus & Motor
NRL MULTI, Unknown motor
Mass
85 kg wet, 85 kg dry
Launch date (UTC)
1967-05-31 (58 years ago)
Launch vehicle
THOR SLV-2 AGENA D
Launch site
Air Force Western Test Range (AFWTR)
Object type
Payload
Rocket body
Debris
Shape & HBR
Ell + 2 Ant, 9.0 m
Radar Cross Section
1.247 m², Medium (>0.1 m² and < 1m²)

Expand to show TLE details & history
Last TLE update: 1 day ago

TLE from 1 day ago
0 GGSE 4
1 02828U 67053C   25241.96218061  .00000085  00000-0  97634-4 0  9994
2 02828  69.9735 328.5085 0008460 207.6921 152.3736 13.98000800967465
Epoch: 2025-08-29T23:05Z
TLE epoch observation values (Epoch: 2025-08-29T23:05:32.404Z)
Latitude
-0.00004°
Longitude
3.72016°
Altitude
908.497 km
Speed
7.395 km/s
True Right ascension
21h 54m 02s
True Declination
0° 00' 00"
Sunlit
Object was in full shadow at epoch
Visualization orbit readout
Latitude
Unknown
Longitude
Unknown
Altitude
Unknown
Speed
Unknown
Apparent Right ascension
Unknown
Apparent Declination
Unknown
Sunlit
N/A
Visualization observer readout
Local Sidereal Time
15:51:34
Azimuth
Unknown
Elevation
Unknown
Doppler factor
Unknown
Orbital elements
Apogee altitude
904.926 km
Perigee altitude
892.614 km
Semi-major axis
7,276.907 km
Eccentricity
0.00085
Inclination
69.9735°
RAAN
328.5085°
Arg. of periapsis
207.6921°
True anomaly
152.41851°
Mean anomaly
152.3736°
Eccentric anomaly
152.39606°
Mean motion
3.49641 °/min
Orbital period
102.96 mins
BSTAR
0.000097634
Loading maneuver chart data...
Computing Atmospheric mass density...
Loading historical data...
Loading historical data...
Loading historical data...
Loading historical data...
Loading historical data...
Loading historical data...
Loading historical data...

Documentation

Showing up to 5 results
|